Regional Weather Roundup
Issued by NWS

Home | Current Version | Previous Version | Text Only | Print | Product List | Glossary Off
Versions: 1 2 3 4 5 6 7 8 9 10 11 12 13 14 15 16 17 18 19 20 21 22 23 24 25 26 27 28 29 30 31 32 33 34 35 36 37 38 39 40 41 42 43 44 45 46 47 48 49 50

000
ASUS44 KMEG 020100
RWRTN
TENNESSEE HOURLY STATE WEATHER ROUNDUP
NATIONAL WEATHER SERVICE MEMPHIS TN
800 PM CDT FRI AUG 01 2014

TNZ002-004-019-021-049-052-054-088>092-020200-
WEST TENNESSEE

CITY           SKY/WX    TMP DP  RH WIND       PRES   REMARKS
MEMPHIS INTL   MOCLDY    82  61  48 E7        30.01R
NWS MEMPHIS      N/A     78 N/A N/A MISG        N/A
JACKSON        MOCLDY    76  66  71 CALM      30.02S
DYERSBURG      MOCLDY    79  59  50 CALM      30.03S
UNION CITY     MOCLDY    77  72  83 CALM      30.02S
PARIS          CLEAR     72  66  83 CALM      30.04S
LEXINGTON      CLOUDY    75  70  83 CALM      30.02S
SAVANNAH       MOCLDY    75  72  88 CALM      30.02S
$$

TNZ008-025-027-028-033-062-065-066-020200-
NORTH MIDDLE TENNESSEE

CITY           SKY/WX    TMP DP  RH WIND       PRES   REMARKS
NASHVILLE      MOCLDY    81  62  52 CALM      30.03S
CLARKSVILLE    PTCLDY    82  56  40 N3        30.02R
COOKEVILLE     MOCLDY    75  70  83 CALM      30.05S
CROSSVILLE     MOCLDY    72  64  76 CALM      30.10S
$$

TNZ061-075-076-078-094-096-097-020200-
SOUTH MIDDLE TENNESSEE

CITY           SKY/WX    TMP DP  RH WIND       PRES   REMARKS
FAYETTEVILLE   MOCLDY    75  64  69 E8        30.04S
TULLAHOMA      MOCLDY    73  66  78 CALM      30.06S
WINCHESTER     CLOUDY    70  70 100 CALM      30.05S
MCMINNVILLE    MOCLDY    75  72  88 CALM      30.06R
COLUMBIA       MOCLDY    79  68  69 CALM      30.02S
SHELBYVILLE    MOCLDY    77  68  73 CALM      30.05R
$$

TNZ017-018-042-046-047-020200-
NORTHEAST TENNESSEE

CITY           SKY/WX    TMP DP  RH WIND       PRES   REMARKS
TRI CITIES     PTCLDY    70  59  68 CALM      30.10S
ELIZABETHTON   CLEAR     66  57  72 NE5       30.12S
$$

TNZ012-013-036-069-073-074-020200-
CENTRAL EAST TENNESSEE

CITY           SKY/WX    TMP DP  RH WIND       PRES   REMARKS
KNOXVILLE      MOCLDY    79  65  62 CALM      30.03S
OAK RIDGE      CLOUDY    78  65  63 CALM      30.05S
GATLINBURG     PTCLDY    73  63  68 CALM      30.04R
$$

TNZ083-085-099-020200-
SOUTHEAST TENNESSEE

CITY           SKY/WX    TMP DP  RH WIND       PRES   REMARKS
CHATTANOOGA    MOCLDY    79  66  64 S6        30.04R
$$

SKY/WX REPORTED AS FAIR MEANS FEW OR NO CLOUDS BELOW
12 THOUSAND FEET.




USA.gov is the U.S. government's official web portal to all federal, state and local government web resources and services.